User: anonymous   Login
Location: Unspecified
(0.0000°N, 0.0000°E)
Time: 16:11:05
(UTC+00:00)
Language:

ISS - Orbit

View from above orbital plane
View from above orbital plane
View from above satellite
View from above satellite

Ground track
Ground track

The orbit data is extracted from the following two-line orbital elements,

1 25544U 98067A   20293.53822728  .00000391  00000-0  15101-4 0  9998
2 25544  51.6437  93.1733 0001323  48.3011  67.0683 15.49312989251290
Epoch (UTC): 19 October 2020 12:55:02
Eccentricity: 0.0001323
inclination: 51.6437°
perigee height: 418 km
apogee height: 419 km
right ascension of ascending node: 93.1733°
argument of perigee: 48.3011°
revolutions per day: 15.49312989
mean anomaly at epoch: 67.0683°
orbit number at epoch: 25129

The dashed part of the orbit path shows where the satellite is in the earth's shadow,  

DLR